Regional Weather Roundup
Issued by NWS

Home | Current Version | Previous Version | Text Only | Print | Product List | Glossary Off
Versions: 1 2 3 4 5 6 7 8 9 10 11 12 13 14 15 16 17 18 19 20 21 22 23 24 25 26 27 28 29

000
ASUS45 KPSR 032010
RWRAZ

ARIZONA HOURLY REGIONAL WEATHER ROUNDUP
NATIONAL WEATHER SERVICE PHOENIX AZ
100 PM MST TUE MAY 03 2016

NOTE: FAIR INDICATES FEW OR NO CLOUDS BELOW 12,000 FEET WITH NO
SIGNIFICANT WEATHER AND/OR OBSTRUCTIONS TO VISIBILITY.

AZZ001>003-036-032100-
NORTHWEST ARIZONA

CITY           SKY/WX    TMP DP  RH WIND       PRES   REMARKS
BULLHEAD CITY  SUNNY     88  36  15 N15       29.95F
KINGMAN        SUNNY     80  28  15 N9G18     30.06F
$$

AZZ004>008-015-016-018-032100-
NORTH CENTRAL ARIZONA

CITY           SKY/WX    TMP DP  RH WIND       PRES   REMARKS
GRAND CANYON   SUNNY     62  31  31 NE13G22   30.25F
PRESCOTT       SUNNY     71  30  21 VRB6      30.14F
FLAGSTAFF      SUNNY     57  35  43 NE9G22    30.26S
PAYSON         SUNNY     72  32  23 NE12      30.14F
PAGE           SUNNY     70  33  25 N9        30.18F
$$

AZZ009>014-017-032100-
NORTHEAST ARIZONA

CITY           SKY/WX    TMP DP  RH WIND       PRES   REMARKS
WINSLOW        SUNNY     68  37  32 VRB3      30.18F
SAINT JOHNS    SUNNY     67  31  26 VRB3      30.18F
WINDOW ROCK    SUNNY     63  26  24 CALM      30.24F
SHOW LOW       SUNNY     61  28  29 E9        30.21F
$$

AZZ023-032100-
GREATER PHOENIX AREA

CITY           SKY/WX    TMP DP  RH WIND       PRES   REMARKS
PHOENIX        MOSUNNY   90  32  12 SE8       29.90F
BUCKEYE        SUNNY     86  36  16 SE12      29.93F
GLENDALE       MOSUNNY   90  34  13 E3        29.93F
LUKE AFB       MOSUNNY   89  32  13 VRB5      29.90F
DEER VALLEY    SUNNY     88  33  14 SE7       29.91F
SCOTTSDALE     SUNNY     87  27  11 SW6       29.93F
MESA-FALCON    SUNNY    N/A N/A N/A VRB6      29.89F
MESA-GATEWAY   MOSUNNY   88  34  14 SW5       29.92F
CHANDLER       SUNNY     88  34  14 W8        29.91F
$$

AZZ027-028-032100-
SOUTHWEST MARICOPA COUNTY AND PINAL COUNTY

CITY           SKY/WX    TMP DP  RH WIND       PRES   REMARKS
CASA GRANDE    SUNNY    N/A N/A N/A MISG        N/A
GILA BEND      SUNNY     89  30  12 W6        29.89F
$$

AZZ503-504-507>509-032100-
SOUTHEAST ARIZONA

CITY           SKY/WX    TMP DP  RH WIND       PRES   REMARKS
TUCSON         SUNNY     86  24  10 SW7       29.97F
DAVIS-MONTHAN  MOSUNNY   83  26  12 W5        29.96F
NOGALES        SUNNY     82  17   9 CALM      30.01F
SIERRA VISTA   SUNNY     79  25  13 VRB2      30.07F
DOUGLAS        SUNNY     81  20  10 S6        30.03F
SAFFORD        SUNNY     83  31  15 E7        29.99F
$$

AZZ020-021-025-026-031-032100-
SOUTHWEST ARIZONA

CITY           SKY/WX    TMP DP  RH WIND       PRES   REMARKS
YUMA           SUNNY     92  33  12 NW5       29.88F
$$

CAZ031-033-041-043-047-048-061-032100-
SOUTHERN CALIFORNIA

CITY           SKY/WX    TMP DP  RH WIND       PRES   REMARKS
DOWNTOWN L.A.  SUNNY     75  56  51 VRB5      29.94F
L.A. AIRPORT   PTSUNNY   67  54  63 SW8       29.95F
SAN DIEGO      MOSUNNY   69  55  60 VRB7      30.00R
BURBANK        SUNNY     83  51  33 VRB7      29.94F
ONTARIO        PTSUNNY   87  29  12 S9        29.93F
RIVERSIDE      SUNNY     91  30  11 VRB7      29.91F
PALM SPRINGS   SUNNY     91  32  12 W7G16     29.92F
EL CENTRO NAS  MOSUNNY   90  35  14 CALM      29.90F
IMPERIAL       SUNNY     92  32  12 CALM      29.88F
BLYTHE         SUNNY     92  36  14 NE9       29.91F
NEEDLES        SUNNY     88  35  15 CALM      29.94F
$$

NVZ020-UTZ003-032100-
SOUTHERN NEVADA-UTAH

CITY           SKY/WX    TMP DP  RH WIND       PRES   REMARKS
LAS VEGAS      SUNNY     80  34  19 N7G17     30.02F
SALT LAKE CITY MOSUNNY   71  33  24 NW8       30.20F
$$

NMZ009-TXZ055-032100-
NEW MEXICO-WEST TEXAS

CITY           SKY/WX    TMP DP  RH WIND       PRES   REMARKS
ALBUQUERQUE    MOSUNNY   69  24  18 VRB7      30.18F
EL PASO        MOSUNNY   79  34  19 NE7       30.05F
$$


........................KEY........................
SKY/WX - SKY CONDITION/WEATHER
TMP    - TEMPERATURE IN FAHRENHEIT
DP     - DEW POINT IN FAHRENHEIT
RH     - RELATIVE HUMIDITY IN PERCENT
WIND   - DIRECTION AND SPEED IN MILES PER HOUR (MPH)
VRB    - VARIABLE WIND DIRECTION
PRES   - MEAN SEA LEVEL PRESSURE IN INCHES OF MERCURY
         F - FALLING PRESSURE   R - RISING PRESSURE
         S - STEADY PRESSURE
VSB    - VISIBILITY IN MILES
HX     - HEAT INDEX IN FAHRENHEIT
WCI    - WIND CHILL INDEX IN FAHRENHEIT
TC     - TEMPERATURE IN CELSIUS WHICH IS ALSO KNOWN AS
         TEMPERATURE IN CENTIGRADE
AFB    - AIR FORCE BASE
         LUKE AFB IS LUKE AIR FORCE BASE
         DAVIS-MONTHAN IS DAVIS-MONTHAN AIR FORCE BASE
NAS    - NAVAL AIR STATION
         EL CENTRO NAS IS EL CENTRO NAVAL AIR STATION
N/A    - NOT AVAILABLE





USA.gov is the U.S. government's official web portal to all federal, state and local government web resources and services.